Waarnemingen

Advertentie
Mijn weer
Metz-Nancy-Lorraine, Frankrijk (7093): temperatuur & dauwpunt: 20.05.2017 16:00:00 - 26.05.2017 16:00:00 (CEST)Metz-Nancy-Lorraine, Frankrijk (7093): windsnelheid & windstoten: 20.05.2017 16:00:00 - 26.05.2017 16:00:00 (CEST)Metz-Nancy-Lorraine, Frankrijk (7093): windrichting: 20.05.2017 16:00:00 - 26.05.2017 16:00:00 (CEST)Metz-Nancy-Lorraine, Frankrijk (7093): luchtdruk: 20.05.2017 16:00:00 - 26.05.2017 16:00:00 (CEST)Metz-Nancy-Lorraine, Frankrijk (7093): zicht: 20.05.2017 16:00:00 - 26.05.2017 16:00:00 (CEST)Metz-Nancy-Lorraine, Frankrijk (7093): Zonneschijnduur: 20.05.2017 16:00:00 - 26.05.2017 16:00:00 (CEST)Metz-Nancy-Lorraine, Frankrijk (7093): neerslag: 20.05.2017 16:00:00 - 26.05.2017 16:00:00 (CEST)
Datum & Tijd tt [°C] td [°C] ff [km/u] ff [kn] fx [km/u] fx [kn] dd ppp [hPa] vv [km] sd [min] rr [mm]
26.05.2017 16:00:00 26,8 8,2 22 12 42 23 O 1016,9 20 60 0,0
26.05.2017 15:00:00 25,7 9,1 23 13 43 23 O 1017,6 22 60 0,0
26.05.2017 14:00:00 25,1 10,2 22 12 46 25 O 1018,2 23 60 0,0
26.05.2017 13:00:00 23,9 9,8 24 13 43 23 O 1018,7 22 60 0,0
26.05.2017 12:00:00 23,1 10,5 24 13 43 23 O 1019,3 25 60 0,0
26.05.2017 11:00:00 21,7 10,2 23 13 40 22 O 1019,7 26 60 0,0
26.05.2017 10:00:00 20,6 10,4 19 11 37 20 O 1020,0 27 60 0,0
26.05.2017 09:00:00 18,9 10,5 21 11 34 18 O 1020,2 27 60 0,0
26.05.2017 08:00:00 17,1 10,5 15 8 30 16 O 1020,5 29 60 0,0
26.05.2017 07:00:00 14,8 10,4 17 9 33 18 ONO 1020,4 29 53 0,0
26.05.2017 06:00:00 13,4 9,8 22 12 34 19 ONO 1020,4 38 0 0,0
26.05.2017 05:00:00 13,8 9,8 22 12 31 17 ONO 1020,2 44 0 0,0
26.05.2017 04:00:00 13,2 9,6 19 10 29 16 ONO 1020,7 49 0 0,0
26.05.2017 03:00:00 14,9 9,7 17 9 27 15 O 1020,3 60 0 0,0
26.05.2017 02:00:00 14,6 10,2 17 9 25 14 ONO 1020,6 58 0 0,0
26.05.2017 01:00:00 15,1 10,5 15 8 21 11 O 1020,7 57 0 0,0
26.05.2017 00:00:00 16,2 10,5 16 9 19 11 ONO 1020,7 60 0 0,0
25.05.2017 23:00:00 16,1 10,6 13 7 19 11 O 1021,0 60 0 0,0
25.05.2017 22:00:00 17,7 10,6 15 8 18 10 O 1020,6 60 0 0,0
25.05.2017 21:00:00 19,6 11,1 14 8 20 11 O 1020,1 60 55 0,0
25.05.2017 20:00:00 22,8 10,2 10 5 33 18 O 1019,7 51 60 0,0
25.05.2017 19:00:00 24,4 9,9 16 8 38 21 NO 1019,7 52 60 0,0
25.05.2017 18:00:00 24,6 10,1 18 10 31 17 NO 1019,9 20 60 0,0
25.05.2017 17:00:00 24,4 9,9 15 8 33 18 NO 1020,2 20 60 0,0
25.05.2017 16:00:00 23,8 10,5 16 8 37 20 ONO 1020,6 33 60 0,0
25.05.2017 15:00:00 23,1 9,1 14 8 34 18 NNO 1021,4 32 60 0,0
25.05.2017 14:00:00 22,2 11,0 13 7 30 16 ONO 1021,8 20 60 0,0
25.05.2017 13:00:00 21,2 11,2 11 6 27 14 ONO 1022,5 18 60 0,0
25.05.2017 12:00:00 20,4 11,1 15 8 25 13 NO 1022,9 15 58 0,0
25.05.2017 11:00:00 19,1 12,4 18 10 29 16 NNO 1023,1 14 57 0,0
25.05.2017 10:00:00 17,9 12,3 14 8 25 14 ONO 1023,2 14 53 0,0
25.05.2017 09:00:00 16,7 11,8 16 8 24 13 NO 1023,2 14 60 0,0
25.05.2017 08:00:00 14,7 11,7 11 6 16 9 N 1023,2 13 60 0,0
25.05.2017 07:00:00 13,4 10,7 5 3 9 5 N 1023,2 13 49 0,0
25.05.2017 06:00:00 12,2 9,9 4 2 9 5 NO 1023,3 10 0 0,0
25.05.2017 05:00:00 12,4 9,9 8 4 12 7 NO 1023,4 12 0 0,0
25.05.2017 04:00:00 13,8 11,1 8 4 14 7 NNO 1023,1 13 0 0,0
25.05.2017 03:00:00 14,8 11,0 8 4 9 5 NNO 1023,0 16 0 0,0
25.05.2017 02:00:00 15,9 11,3 7 4 10 6 NNO 1023,4 21 0 0,0
25.05.2017 01:00:00 15,3 11,1 6 3 9 5 ONO 1023,7 19 0 0,0
25.05.2017 00:00:00 16,0 11,4 9 5 14 7 NO 1023,8 29 0 0,0
24.05.2017 23:00:00 17,7 11,5 10 5 16 9 NO 1023,9 39 0 0,0
24.05.2017 22:00:00 18,8 11,8 8 4 16 9 NNO 1023,3 52 0 0,0
24.05.2017 21:00:00 20,6 12,0 8 4 12 7 NNO 1022,8 60 0 0,0
24.05.2017 20:00:00 21,5 11,8 5 3 13 7 NNO 1022,5 60 4 0,0
24.05.2017 19:00:00 22,2 11,6 5 3 15 8 ONO 1022,3 49 31 0,0
24.05.2017 18:00:00 22,5 10,9 10 5 23 13 NNO 1022,7 56 23 0,0
24.05.2017 17:00:00 22,5 11,2 7 4 23 12 NNW 1023,0 57 15 0,0
24.05.2017 16:00:00 22,7 11,4 11 6 32 17 NNW 1023,2 59 25 0,0
24.05.2017 15:00:00 22,3 10,4 8 5 30 16 NNW 1023,6 56 45 0,0
24.05.2017 14:00:00 22,3 11,4 10 5 18 10 NNW 1023,7 20 39 0,0
24.05.2017 13:00:00 21,2 10,7 6 3 18 10 WNW 1024,5 45 41 0,0
24.05.2017 12:00:00 20,6 10,1 7 4 18 10 N 1025,1 20 54 0,0
24.05.2017 11:00:00 19,7 10,4 5 3 15 8 NNW 1025,2 48 60 0,0
24.05.2017 10:00:00 18,3 10,4 5 3 11 6 ZZW 1025,3 51 60 0,0
24.05.2017 09:00:00 16,9 11,0 4 2 9 5 Z 1025,3 53 37 0,0
24.05.2017 08:00:00 14,5 9,7 3 1 6 4 NNO 1025,5 34 17 0,0
24.05.2017 07:00:00 14,3 9,9 2 1 4 2 W 1024,8 37 24 0,0
24.05.2017 06:00:00 13,0 9,6 0 0 5 3 N 1024,7 41 0 0,0
24.05.2017 05:00:00 11,7 8,5 2 1 7 4 W 1024,6 59 0 0,0
24.05.2017 04:00:00 12,0 7,9 7 4 9 5 ONO 1024,6 50 0 0,0
24.05.2017 03:00:00 12,2 8,1 4 2 6 4 NNO 1024,3 60 0 0,0
24.05.2017 02:00:00 13,2 8,7 6 4 10 5 NO 1023,9 43 0 0,0
24.05.2017 01:00:00 15,3 10,5 4 2 10 5 NNO 1023,7 32 0 0,0
24.05.2017 00:00:00 15,3 11,3 7 4 12 6 NW 1023,3 34 0 0,0
23.05.2017 23:00:00 16,4 12,4 9 5 20 11 NW 1022,9 34 0 0,0
23.05.2017 22:00:00 17,2 12,5 12 6 21 12 WNW 1022,1 34 0 0,0
23.05.2017 21:00:00 19,5 13,0 15 8 32 17 WNW 1021,1 47 53 0,0
23.05.2017 20:00:00 21,3 13,0 21 11 34 18 W 1020,6 31 60 0,0
23.05.2017 19:00:00 22,7 11,4 21 11 36 19 W 1020,0 30 60 0,0
23.05.2017 18:00:00 23,3 10,7 23 12 42 23 WNW 1019,8 34 60 0,0
23.05.2017 17:00:00 23,8 11,8 27 15 45 24 NW 1019,6 42 48 0,0
23.05.2017 16:00:00 23,6 12,9 26 14 39 21 WNW 1019,2 20 35 0,0
23.05.2017 15:00:00 23,2 13,1 19 10 39 21 WNW 1019,0 53 11 0,0
23.05.2017 14:00:00 24,4 12,0 23 13 36 19 W 1018,9 19 33 0,0
23.05.2017 13:00:00 23,9 13,1 17 9 27 15 WNW 1018,9 51 35 0,0
23.05.2017 12:00:00 23,0 12,6 16 8 24 13 W 1019,1 29 38 0,0
23.05.2017 11:00:00 22,7 12,9 13 7 22 12 WNW 1018,6 32 60 0,0
23.05.2017 10:00:00 21,0 12,7 7 4 16 9 W 1018,7 52 60 0,0
23.05.2017 09:00:00 18,5 13,1 8 4 13 7 ZW 1018,6 36 55 0,0
23.05.2017 08:00:00 16,6 12,1 9 5 13 7 ZW 1018,4 37 60 0,0
23.05.2017 07:00:00 14,7 11,5 9 5 16 8 Z 1017,8 28 36 0,0
23.05.2017 06:00:00 13,6 10,9 13 7 16 9 ZZW 1017,5 25 0 0,0
23.05.2017 05:00:00 13,2 10,7 10 5 14 8 ZZW 1017,1 25 0 0,0
23.05.2017 04:00:00 14,1 10,3 6 3 13 7 ZZW 1016,9 32 0 0,0
23.05.2017 03:00:00 13,9 10,1 6 4 11 6 Z 1016,8 32 0 0,0
23.05.2017 02:00:00 16,6 10,4 5 3 9 5 O 1016,6 36 0 0,0
23.05.2017 01:00:00 16,0 10,5 3 2 14 8 ZZO 1017,0 52 0 0,0
23.05.2017 00:00:00 16,7 10,8 15 8 17 9 ZO 1016,6 52 0 0,0
22.05.2017 23:00:00 17,5 10,6 14 7 15 8 OZO 1016,4 43 0 0,0
22.05.2017 22:00:00 19,1 10,4 11 6 13 7 O 1016,0 46 0 0,0
22.05.2017 21:00:00 19,9 10,6 9 5 11 6 O 1015,6 52 0 0,0
22.05.2017 20:00:00 21,5 11,2 6 3 7 4 O 1015,4 60 25 0,0
22.05.2017 19:00:00 23,1 9,1 3 2 8 5 O 1015,3 54 49 0,0
22.05.2017 18:00:00 23,6 9,6 5 3 14 7 OZO 1015,6 58 58 0,0
22.05.2017 17:00:00 24,2 8,6 5 3 16 9 ZZO 1015,7 49 60 0,0
22.05.2017 16:00:00 23,6 8,1 7 4 22 12 Z 1016,3 55 60 0,0
22.05.2017 15:00:00 23,2 9,2 8 4 25 14 ZZO 1016,6 33 60 0,0
22.05.2017 14:00:00 22,7 10,8 8 4 31 17 OZO 1017,1 20 60 0,0
22.05.2017 13:00:00 21,9 10,4 13 7 28 15 OZO 1017,4 27 60 0,0
22.05.2017 12:00:00 21,0 10,2 16 9 30 16 O 1017,8 20 60 0,0
22.05.2017 11:00:00 19,4 9,8 10 6 20 11 O 1018,6 24 60 0,0
22.05.2017 10:00:00 18,0 10,1 13 7 20 11 O 1019,0 36 60 0,0
22.05.2017 09:00:00 15,7 8,9 8 4 23 12 O 1019,4 25 60 0,0
22.05.2017 08:00:00 12,7 9,1 8 4 14 7 ONO 1019,5 20 60 0,0
22.05.2017 07:00:00 10,7 7,2 5 3 8 4 NNO 1020,0 27 49 0,0
22.05.2017 06:00:00 8,7 6,1 3 2 6 3 N 1020,2 25 0 0,0
22.05.2017 05:00:00 7,7 5,7 2 1 5 3 W 1020,3 30 0 0,0
22.05.2017 04:00:00 9,1 6,4 3 2 6 3 ONO 1020,2 29 0 0,0
22.05.2017 03:00:00 10,1 6,6 2 1 13 7 WZW 1020,5 38 0 0,0
22.05.2017 02:00:00 9,8 6,1 7 4 9 5 O 1021,2 40 0 0,0
22.05.2017 01:00:00 11,1 7,0 4 2 15 8 ONO 1021,5 48 0 0,0
22.05.2017 00:00:00 11,8 7,3 12 7 19 10 O 1021,6 48 0 0,0
21.05.2017 23:00:00 12,8 7,5 15 8 22 12 O 1021,7 59 0 0,0
21.05.2017 22:00:00 13,8 6,9 16 8 19 10 O 1021,9 60 0 0,0
21.05.2017 21:00:00 16,3 7,2 13 7 18 10 O 1021,6 60 44 0,0
21.05.2017 20:00:00 19,4 7,2 9 5 21 11 O 1021,7 44 60 0,0
21.05.2017 19:00:00 20,3 6,2 11 6 23 12 O 1022,1 48 60 0,0
21.05.2017 18:00:00 20,6 5,4 14 8 24 13 O 1022,6 45 60 0,0
21.05.2017 17:00:00 20,1 5,3 10 5 36 20 O 1023,3 33 58 0,0
21.05.2017 16:00:00 20,3 6,2 14 8 33 18 O 1023,9 55 53 0,0
21.05.2017 15:00:00 19,9 6,6 14 7 23 12 O 1024,4 19 60 0,0
21.05.2017 14:00:00 18,6 6,4 11 6 24 13 OZO 1025,2 42 48 0,0
21.05.2017 13:00:00 18,2 6,7 13 7 28 15 OZO 1025,9 59 54 0,0
21.05.2017 12:00:00 17,7 6,2 15 8 31 17 O 1026,6 25 60 0,0
21.05.2017 11:00:00 16,7 7,6 14 7 32 18 O 1026,9 20 60 0,0
21.05.2017 10:00:00 15,3 9,2 8 4 14 8 ONO 1027,4 32 60 0,0
21.05.2017 09:00:00 13,4 8,9 6 3 14 7 O 1027,7 22 60 0,0
21.05.2017 08:00:00 10,8 7,3 2 1 5 3 NO 1027,7 20 60 0,0
21.05.2017 07:00:00 8,5 6,5 2 1 9 5 NNW 1027,7 12 48 0,0
21.05.2017 06:00:00 6,4 5,0 3 2 7 4 ONO 1027,8 16 0 0,0
21.05.2017 05:00:00 6,1 4,3 3 2 14 8 OZO 1027,8 37 0 0,0
21.05.2017 04:00:00 7,0 5,1 10 5 16 9 ZO 1027,7 31 0 0,0
21.05.2017 03:00:00 6,4 4,7 9 5 14 7 ZZO 1027,7 42 0 0,0
21.05.2017 02:00:00 8,9 5,5 7 4 12 6 Z 1027,5 50 0 0,0
21.05.2017 01:00:00 8,5 5,8 12 6 15 8 Z 1027,5 60 0 0,0
21.05.2017 00:00:00 9,0 6,4 12 7 16 9 ZZO 1027,1 56 0 0,0
20.05.2017 23:00:00 9,9 6,8 13 7 15 8 ZZO 1026,9 60 0 0,0
20.05.2017 22:00:00 10,9 7,4 12 7 14 8 ZZO 1026,3 60 0 0,0
20.05.2017 21:00:00 12,8 8,1 11 6 13 7 ZZO 1025,8 60 44 0,0
20.05.2017 20:00:00 14,3 7,8 9 5 15 8 Z 1025,2 60 8 0,0
20.05.2017 19:00:00 15,5 6,5 10 5 16 9 ZZW 1024,7 54 2 0,0
20.05.2017 18:00:00 15,3 5,5 12 6 21 11 ZZW 1024,4 53 5 0,0
20.05.2017 17:00:00 16,1 4,8 11 6 27 15 Z 1024,1 58 21 0,0
20.05.2017 16:00:00 17,0 5,9 18 10 31 17 ZW 1023,6 25 57 0,0

tt = temperatuur
td = dauwpunt
ff = windsnelheid
fx = windstoten
dd = windrichting
ppp = luchtdruk
vv = zicht
sd = Zonneschijnduur
rr = neerslag

Weerstations in de omgeving